Wind_Speed
92 95 98 101 105 108 112 115 118 121 123 124 124 125 125 125 125 125 124 124 123 122 120 118 115 112 109 107 105 103 102 100 99 98 97 97 96 97 97 97 97 97 98 98 98 98 99 100 101 102 104 106 107 109 111 112 114 115 117 117 118 119 119 118 116 113 115 121 124 125 128 133 135 138 140 142 142 144 144 143 143 142 140 138 136
96 99 102 106 110 113 117 120 123 125 126 126 126 126 126 126 126 126 125 124 122 120 118 115 112 109 107 104 103 101 99 98 97 96 96 95 95 95 96 96 96 97 97 98 98 98 98 99 99 100 101 103 104 105 107 108 110 111 112 114 115 116 117 116 115 112 111 114 118 120 121 124 128 131 135 138 139 140 142 142 142 141 141 140 138
100 103 107 111 114 118 121 124 127 127 127 127 127 127 127 127 127 126 124 123 120 118 115 112 109 107 105 103 101 99 98 97 96 96 95 95 95 95 95 95 96 96 97 97 98 98 99 99 100 100 100 101 102 103 104 105 107 108 109 110 110 111 112 113 112 111 109 109 113 116 117 119 121 122 127 132 134 136 138 139 140 140 139 138 138
104 108 112 115 118 122 125 128 129 128 128 128 128 128 128 128 126 125 123 121 118 115 112 110 107 105 103 101 100 99 98 97 97 96 96 95 95 95 95 95 96 96 96 97 97 97 98 99 99 100 101 101 102 102 103 104 105 106 106 107 108 108 108 109 108 107 106 105 106 111 113 114 116 117 120 124 128 130 133 135 136 137 137 136 135
109 112 116 119 123 126 129 129 129 129 129 129 129 129 129 127 125 123 121 118 116 113 110 108 106 103 102 101 100 99 98 97 97 96 96 96 96 96 96 96 96 96 97 97 97 97 98 98 99 99 100 100 101 101 102 103 103 104 105 105 105 106 106 107 106 105 104 102 101 104 106 108 110 112 115 118 121 124 127 130 132 132 133 134 133
113 116 120 124 127 130 131 131 131 131 131 130 130 129 128 126 124 122 119 116 113 111 109 106 104 102 101 100 100 99 98 97 96 96 96 96 96 96 96 96 97 97 97 97 97 97 97 97 98 98 99 99 99 100 100 101 101 101 102 102 102 103 103 104 104 103 102 101 100 100 101 103 104 106 108 111 114 116 120 125 127 129 129 130 131
117 121 125 129 131 132 133 133 133 132 132 131 130 128 126 125 123 120 117 114 111 109 107 105 103 102 101 100 99 97 96 95 95 95 95 95 95 95 96 96 96 97 97 97 97 97 97 97 97 97 97 97 97 97 97 97 97 98 98 99 99 100 100 101 101 101 101 100 98 98 98 99 101 102 104 106 108 110 113 116 120 123 126 127 128
122 126 130 132 134 135 136 136 135 134 132 131 129 127 126 124 120 117 114 111 109 108 106 104 102 101 100 99 97 96 95 94 93 94 94 93 94 94 94 95 95 95 96 96 96 96 96 96 96 96 96 96 95 95 95 94 94 94 95 95 96 96 97 98 98 98 98 98 97 96 96 96 98 99 101 103 105 106 108 110 111 115 120 122 124
127 131 134 136 138 138 138 137 136 134 132 130 128 126 124 120 117 114 111 109 108 106 105 103 102 100 99 97 96 95 93 93 92 92 92 91 91 92 92 93 93 94 94 95 95 95 95 95 95 95 95 95 94 93 92 92 91 91 92 92 93 93 93 94 94 94 95 94 94 94 93 94 95 97 98 100 102 103 105 106 106 108 112 116 118
132 136 138 140 140 140 139 138 136 134 131 129 127 124 120 117 114 111 110 108 107 106 104 102 101 99 98 96 95 93 92 91 90 90 89 89 89 89 90 90 91 91 92 93 93 93 94 93 93 94 93 93 93 92 91 91 90 90 90 90 91 91 91 91 91 91 91 91 91 91 90 91 92 94 95 97 99 101 102 103 104 104 107 110 112
137 140 142 142 142 141 140 139 136 134 132 129 125 120 117 114 112 110 108 108 106 105 103 101 99 98 96 95 93 92 90 89 89 88 87 86 86 86 87 87 88 88 89 89 90 91 91 91 91 92 92 92 92 92 91 91 90 90 90 90 91 91 91 90 90 89 89 89 88 89 89 89 90 91 91 93 96 98 99 100 101 101 103 104 106
142 144 144 144 143 142 141 139 137 135 131 127 122 118 115 113 111 109 108 107 106 104 102 100 98 96 95 93 92 90 89 88 87 87 86 85 84 84 84 84 85 85 86 86 87 87 88 88 89 90 90 91 91 91 90 90 90 90 91 91 91 92 91 90 90 90 90 89 89 89 88 88 88 88 90 92 94 96 96 96 96 98 99 101 102
146 146 146 145 144 143 141 139 137 134 129 124 120 117 114 112 110 109 108 106 105 103 101 99 97 96 94 93 91 90 88 88 87 86 85 84 83 83 82 82 83 83 83 84 84 84 85 85 86 87 88 89 89 88 88 88 89 89 90 91 91 92 91 91 90 90 90 90 90 91 91 89 88 88 89 91 92 93 93 92 93 94 95 97 99
148 148 147 146 145 143 141 139 136 131 126 122 119 116 114 112 111 109 107 106 104 102 100 99 97 95 94 92 91 90 88 88 87 85 84 83 82 82 81 81 82 82 82 82 82 83 83 84 84 85 86 87 87 86 86 86 87 87 89 90 90 90 90 90 90 89 89 89 89 91 92 92 91 90 90 90 90 90 90 90 91 91 92 93 96
150 150 149 147 145 144 142 138 133 128 125 122 119 116 114 112 111 109 107 105 104 102 100 98 96 95 93 92 91 90 88 88 87 85 84 82 81 81 81 81 81 81 81 81 81 82 82 83 83 84 85 85 85 85 84 84 85 86 87 88 88 89 89 89 89 88 87 86 87 88 91 92 92 91 91 90 89 88 88 88 89 90 90 91 93
151 151 149 148 147 145 141 136 130 127 124 121 118 116 114 112 111 109 107 105 103 101 99 97 96 94 93 92 91 90 88 87 86 85 83 82 81 80 80 80 80 80 80 80 81 81 82 82 82 82 83 83 83 83 82 83 83 84 85 86 87 87 88 88 87 86 86 85 86 87 89 91 91 91 90 90 89 87 86 86 87 87 88 89 91
152 151 150 149 148 144 138 133 129 126 122 120 118 116 114 112 110 108 106 104 102 100 98 97 95 94 93 92 91 90 88 87 85 84 82 81 80 79 79 79 79 79 79 79 79 80 80 80 80 80 80 81 81 81 80 80 81 82 82 83 84 85 86 85 85 85 85 84 85 86 87 89 89 89 89 89 89 87 85 84 84 84 85 87 90
152 151 151 149 146 140 135 131 128 124 122 120 118 116 113 112 109 107 105 103 101 99 98 96 95 94 93 92 90 89 87 86 84 83 81 79 78 78 78 78 78 78 78 78 78 78 78 78 78 78 78 78 78 79 78 78 78 79 79 80 82 83 83 83 83 83 84 84 84 85 85 86 87 87 88 88 88 87 85 85 84 82 82 85 88
153 152 151 147 142 137 133 129 126 123 122 119 117 115 112 110 108 105 103 101 100 98 97 96 95 94 92 91 89 87 86 84 83 81 79 78 77 77 77 77 77 77 76 76 76 76 76 76 77 77 77 77 77 77 77 77 76 77 78 78 79 81 82 81 81 82 82 83 83 84 83 84 85 85 86 86 87 86 85 85 84 82 82 83 85
153 152 149 144 139 134 130 127 125 123 120 118 115 113 111 108 106 104 102 100 99 97 96 95 94 93 91 90 88 86 85 83 81 80 78 78 77 77 77 77 77 76 76 75 75 75 75 75 76 77 77 77 77 77 77 76 75 75 76 76 77 78 79 80 80 80 80 81 82 82 82 82 82 82 83 84 85 85 85 84 84 83 83 83 84
153 149 145 140 135 130 127 125 123 121 118 116 113 111 108 106 104 102 100 99 98 96 95 94 93 91 90 88 87 85 84 82 81 79 79 78 78 77 78 78 77 76 75 74 74 74 74 74 74 75 76 76 76 76 76 75 74 73 73 73 74 75 76 78 79 79 78 79 80 81 81 81 80 80 80 81 81 82 82 83 83 83 83 83 84
150 145 140 135 131 127 125 123 121 119 116 114 111 109 106 104 102 100 99 98 96 95 94 93 91 89 88 87 86 85 83 82 81 80 79 79 78 78 78 78 77 75 74 73 73 73 73 73 73 74 75 76 76 76 74 74 73 72 71 71 71 72 73 75 77 77 78 78 79 79 79 79 79 78 78 78 78 78 79 80 80 81 81 82 83
144 139 135 131 127 125 123 121 118 116 114 111 109 106 104 102 100 99 98 96 95 94 93 91 90 88 87 87 86 85 83 82 81 80 80 79 78 78 78 78 77 75 73 72 72 72 72 72 72 73 75 76 76 75 74 73 72 71 71 70 69 70 71 72 74 75 76 77 78 78 78 78 77 77 76 76 75 75 76 76 77 77 77 79 80
138 135 131 128 125 123 121 118 116 113 111 109 107 104 102 101 99 98 96 95 93 92 91 90 88 87 87 86 86 85 84 83 82 81 80 79 79 78 78 78 77 75 73 72 72 72 71 71 71 72 73 75 75 75 74 73 72 71 70 70 69 69 69 70 71 73 74 75 76 77 77 77 76 76 75 74 73 73 73 73 73 74 74 75 77
135 132 129 126 123 121 119 116 114 111 109 107 105 103 101 100 98 97 95 94 92 91 90 89 88 87 86 86 86 85 85 84 83 82 80 79 79 78 78 77 76 75 73 72 72 71 71 70 70 70 71 73 73 74 73 72 71 71 70 70 69 69 68 69 70 71 72 73 74 74 75 75 75 75 73 72 72 71 71 70 70 71 72 73 75
132 130 128 125 122 119 117 114 112 109 107 105 103 101 100 99 97 96 94 93 91 90 89 88 88 87 86 86 86 85 85 84 83 82 80 79 79 78 77 76 75 74 73 72 71 71 70 69 69 69 69 70 71 72 72 72 71 70 70 70 69 69 68 68 69 70 71 72 72 72 73 73 73 73 72 71 71 70 69 68 68 69 70 71 72
129 127 125 123 120 117 115 112 109 106 104 103 101 100 99 98 96 95 93 92 91 90 89 88 87 86 86 85 85 85 84 84 83 81 80 79 79 78 78 76 75 74 72 71 70 69 68 68 68 68 67 67 68 69 70 71 70 70 70 70 69 69 68 68 68 68 69 70 70 71 71 70 71 71 71 70 70 70 69 67 66 67 69 69 70
126 124 122 120 118 115 112 109 107 104 102 100 99 99 98 97 95 94 93 91 90 89 88 87 86 85 85 85 84 84 84 83 82 80 79 79 78 78 78 77 74 73 72 70 69 68 67 68 67 66 65 65 65 66 67 67 68 68 68 69 69 68 67 67 67 67 67 67 68 68 68 68 69 69 69 69 69 69 68 67 66 66 68 68 68
123 121 119 117 114 111 109 107 104 102 100 98 97 97 96 96 95 94 92 91 90 89 88 87 86 85 84 84 84 83 82 81 80 79 79 78 78 79 79 77 74 72 71 69 68 67 67 67 66 65 64 64 63 63 64 64 64 64 65 66 67 67 67 66 66 65 65 64 65 65 66 66 66 67 67 68 68 68 68 66 65 65 67 67 67
120 118 116 113 111 108 106 104 102 100 98 96 96 96 95 94 93 93 91 90 89 88 87 86 85 84 84 83 82 81 81 80 79 78 77 77 77 79 79 77 74 71 69 68 67 66 66 66 65 64 64 63 62 62 62 62 62 61 61 62 64 65 65 65 65 64 64 63 62 63 63 64 64 65 65 66 67 68 67 66 64 64 65 66 66
117 115 113 110 108 106 103 102 100 99 97 95 95 94 93 93 92 91 90 89 88 87 86 85 84 83 83 82 81 80 79 79 78 77 76 75 76 78 79 77 74 71 69 68 67 66 65 64 64 64 63 63 62 61 61 61 60 60 60 60 60 61 62 62 62 62 62 62 61 61 62 63 63 64 65 65 65 66 66 64 63 62 63 64 65
114 112 110 107 105 103 101 100 98 97 95 94 93 93 92 91 90 89 88 87 86 86 86 84 83 82 81 80 79 78 78 78 77 76 75 74 75 76 77 76 73 70 69 68 67 66 65 64 63 63 63 62 62 61 61 60 60 59 59 59 59 59 59 59 59 59 60 60 60 60 60 61 62 63 64 64 64 64 64 63 62 61 61 62 63
112 109 107 104 102 100 99 97 96 95 93 92 92 91 91 90 89 88 86 86 85 85 85 84 82 81 80 78 77 77 76 76 76 75 74 74 74 75 75 74 72 70 70 69 68 66 65 64 63 63 62 61 61 60 60 59 59 59 58 58 58 57 57 56 56 56 57 57 57 58 59 60 61 62 62 63 62 62 62 62 61 60 60 60 61
109 106 104 102 99 97 96 95 94 93 92 91 90 90 90 89 88 87 86 85 84 83 83 82 81 80 79 77 76 76 76 76 75 74 73 73 73 73 73 72 70 69 69 69 68 66 65 63 62 62 61 61 60 59 59 59 58 58 57 57 57 56 56 55 55 55 55 55 55 56 57 58 59 60 60 61 60 60 60 61 60 59 59 59 60
107 104 102 99 97 95 93 92 91 90 90 89 89 88 88 87 86 86 85 85 84 83 81 80 79 78 77 76 75 75 75 75 74 73 72 71 71 72 72 70 69 69 68 67 66 66 64 63 62 60 60 60 59 58 58 58 57 57 57 56 55 55 55 55 54 54 54 53 53 53 55 55 56 57 58 59 59 58 59 59 59 58 58 58 59
105 103 100 97 95 93 90 89 88 87 87 87 87 87 86 85 85 84 84 84 83 82 81 79 77 75 75 75 75 75 75 75 73 72 70 69 69 70 70 69 69 69 67 66 65 65 63 62 61 60 59 58 58 58 57 57 57 56 55 55 55 54 54 54 53 53 53 52 52 52 53 54 54 55 55 56 57 57 58 58 57 57 57 58 58
103 101 98 95 93 90 88 86 85 85 85 85 85 84 84 83 83 83 82 82 81 81 81 79 77 75 73 72 73 74 75 75 73 71 69 67 68 69 68 68 69 69 66 64 64 63 62 61 60 59 58 58 57 57 56 56 56 55 54 54 54 54 53 53 52 52 52 51 51 51 52 52 52 53 53 53 54 55 55 56 56 56 57 57 57
100 98 96 93 90 88 85 84 82 82 82 82 82 82 82 81 81 81 80 80 79 79 79 78 77 76 73 71 71 73 74 74 74 71 68 66 67 68 67 68 69 68 66 64 62 61 61 60 59 59 58 57 57 56 56 55 55 54 53 53 53 52 52 52 52 51 50 50 50 50 50 50 50 50 51 51 52 53 53 53 53 54 55 56 55
96 94 92 90 88 85 83 81 80 80 79 79 80 80 79 79 79 79 78 78 78 77 77 77 77 76 74 71 70 71 72 73 72 70 67 67 67 66 66 67 69 68 65 63 62 60 59 59 58 58 58 57 57 56 56 55 54 53 53 52 52 51 51 51 50 49 49 49 49 50 49 49 48 48 48 49 50 51 51 51 51 52 53 54 54
92 91 89 88 86 83 81 80 79 78 78 78 78 77 77 77 77 77 77 77 77 77 76 76 76 75 74 72 72 71 71 70 70 68 68 68 67 64 63 66 67 66 65 63 62 60 59 57 57 57 57 57 56 56 55 54 53 52 51 51 51 50 50 50 49 48 48 48 48 48 48 48 47 46 47 47 47 48 49 49 49 50 51 52 53
90 88 87 85 83 82 80 79 78 78 77 77 77 76 76 76 76 76 76 76 76 76 75 75 75 75 74 73 72 71 70 69 68 67 68 69 66 63 62 63 64 64 64 63 61 60 58 57 56 56 56 56 56 55 54 53 52 51 50 50 49 49 49 49 48 47 47 47 47 47 47 46 46 45 45 45 45 46 46 47 47 48 49 50 50
87 86 84 83 82 80 79 79 78 78 77 77 76 76 76 76 76 76 76 75 75 75 74 74 74 74 73 72 71 70 69 67 66 67 68 68 65 63 63 62 62 62 62 61 60 59 58 57 56 56 55 55 54 54 53 52 51 50 50 49 48 47 47 47 47 47 46 46 46 46 46 45 44 44 44 44 44 44 45 45 46 46 47 48 49
86 84 83 82 81 80 79 78 78 78 77 77 76 76 77 76 76 76 75 75 74 73 73 74 74 73 72 71 70 69 68 67 66 67 68 66 64 63 63 62 61 61 61 60 59 58 57 56 56 55 55 54 54 53 52 51 50 50 49 48 47 47 47 47 46 46 45 45 46 46 46 45 44 44 43 43 43 43 44 44 44 45 46 47 48
84 83 82 81 80 79 78 78 77 77 77 76 77 77 77 76 76 75 75 74 73 73 73 73 73 72 71 70 69 68 67 66 66 67 67 65 63 62 62 61 61 61 60 59 58 57 56 55 55 54 54 53 53 52 51 50 50 49 48 47 46 46 46 46 46 45 44 44 44 45 45 45 44 44 43 43 43 43 43 44 44 43 44 45 47
83 82 81 80 79 79 78 77 77 76 76 76 77 77 77 76 75 75 74 73 73 73 73 72 72 71 71 69 68 67 66 66 66 67 66 63 62 61 60 60 60 60 59 58 58 57 56 55 54 53 52 52 51 51 50 49 49 48 47 46 46 45 45 45 45 44 43 43 43 43 43 43 43 43 43 42 42 42 42 42 43 42 42 43 44
81 81 80 79 79 78 77 77 76 76 76 76 76 76 76 75 75 74 74 73 73 72 72 71 71 70 70 69 68 66 65 65 66 66 64 62 61 60 59 59 59 58 58 57 57 56 56 55 53 52 51 50 49 49 49 48 47 46 46 46 45 45 45 45 44 43 42 41 41 41 41 41 42 42 41 41 41 41 40 41 41 41 41 41 42
80 80 80 79 78 78 77 77 76 76 76 76 76 75 75 75 74 74 73 73 72 71 71 70 70 69 68 68 66 65 64 65 66 65 62 61 61 60 58 58 57 57 56 56 56 55 55 55 53 52 50 48 47 47 47 47 46 45 44 44 45 44 44 44 44 43 41 40 40 40 39 39 40 40 40 39 39 39 39 39 39 40 40 40 40
80 79 79 78 78 77 77 77 77 76 76 76 75 75 74 74 73 73 72 71 70 70 69 69 69 68 67 66 65 64 63 64 64 62 61 61 60 59 57 56 56 55 54 54 54 54 54 54 53 52 49 48 47 46 46 45 45 43 42 42 43 43 43 44 43 42 41 40 40 39 39 38 38 38 38 38 38 38 38 38 38 38 38 38 38
79 78 78 78 77 77 77 76 76 76 76 75 74 74 73 73 72 72 71 70 69 68 68 68 68 67 65 64 63 63 63 63 62 60 60 60 59 57 56 55 54 53 53 52 53 53 53 53 52 51 48 47 46 45 45 44 43 42 41 41 41 41 42 42 42 41 40 40 39 39 38 38 38 38 37 37 37 37 37 37 37 37 37 37 37
78 78 77 77 77 77 76 76 75 75 74 73 73 73 73 72 71 70 69 69 68 67 67 66 66 65 64 63 62 61 61 60 59 59 59 58 57 56 55 54 53 52 51 51 51 52 52 52 51 49 48 46 46 45 44 43 42 42 41 40 40 40 40 40 41 41 40 39 39 38 37 37 37 37 37 37 36 36 36 36 36 36 37 37 37
77 77 77 76 76 76 75 75 74 74 73 72 72 71 71 71 70 69 68 67 66 66 65 65 64 63 62 61 60 59 59 58 58 57 57 56 55 54 53 52 51 51 50 50 50 50 50 50 48 47 47 46 45 44 43 42 41 41 40 40 39 39 38 38 39 40 40 40 39 38 37 37 37 37 37 36 36 36 36 36 36 36 36 36 36
Wind_Direction
303 306 308 309 310 310 310 310 310 310 310 309 308 308 308 308 307 307 307 307 306 305 304 302 301 299 298 297 296 294 293 292 290 289 288 286 285 284 282 281 280 279 278 276 275 274 273 272 271 270 269 269 268 268 267 267 267 266 266 266 266 265 265 265 264 262 260 259 258 257 256 256 257 257 258 258 258 258 257 257 256 255 255 255 254
306 308 310 310 310 310 310 310 310 310 309 309 309 308 308 308 308 308 307 306 305 304 302 301 300 298 297 296 295 294 292 291 290 289 287 286 285 283 282 281 280 279 278 277 276 275 274 272 271 270 269 269 268 268 267 267 266 266 266 265 265 265 265 264 264 263 261 260 259 258 257 257 256 256 258 258 258 259 259 259 258 257 256 255 254
308 310 310 310 310 310 310 310 310 309 309 309 309 309 309 309 308 308 307 306 304 303 301 300 299 298 297 296 295 293 292 291 290 289 287 286 285 283 282 281 280 279 278 277 276 275 274 273 272 271 270 269 268 268 267 267 266 266 266 266 265 265 265 265 264 264 262 260 259 258 258 257 256 255 255 257 257 258 258 259 259 258 258 256 255
309 310 310 310 310 310 310 310 309 309 309 309 309 309 309 309 308 307 306 305 303 302 301 300 299 298 297 296 295 294 293 292 291 289 288 287 285 284 282 281 280 279 278 277 276 275 274 273 272 271 271 270 269 268 268 267 267 266 266 266 266 266 265 265 265 264 263 261 260 259 258 257 257 256 255 255 255 256 257 257 258 258 258 257 256
310 310 310 310 310 310 310 310 310 310 310 310 310 310 309 308 307 306 305 304 302 301 300 299 298 297 296 296 295 294 293 292 291 290 288 287 285 284 283 282 281 280 279 278 277 276 275 274 273 272 271 271 270 269 269 268 268 268 267 267 267 267 267 266 266 266 265 263 261 260 259 258 258 257 256 255 255 255 255 256 257 257 257 257 256
310 310 310 310 310 310 310 310 310 310 310 310 310 309 309 308 307 306 304 303 301 300 299 298 298 297 296 296 295 294 293 292 291 289 288 287 286 284 283 283 282 281 280 279 278 277 276 275 275 274 273 272 272 271 270 270 270 270 269 269 269 269 268 268 268 267 266 265 264 262 261 260 259 258 257 256 255 255 254 255 256 256 256 256 256
310 311 311 310 310 310 310 310 310 310 310 310 310 309 308 307 306 305 303 302 301 299 299 298 298 297 297 296 295 294 292 291 290 289 287 286 285 285 284 283 282 282 281 280 280 279 278 278 277 276 275 275 274 273 273 272 271 271 271 270 270 269 269 268 268 268 267 266 265 263 262 261 260 259 258 257 256 255 254 254 254 255 255 255 256
311 311 310 310 310 310 310 310 310 310 310 310 309 308 308 306 305 303 302 301 300 299 299 299 298 298 297 296 294 293 292 291 289 288 287 286 286 285 284 283 283 282 282 281 281 280 280 279 279 278 277 277 276 275 275 274 273 273 272 271 270 270 269 268 268 267 267 266 265 264 263 262 261 260 259 258 257 256 255 254 253 254 255 255 255
310 310 310 310 310 310 310 310 310 311 310 309 309 308 307 305 304 302 301 301 300 300 300 299 299 297 296 295 294 293 291 290 289 288 287 286 286 285 284 283 282 282 281 281 280 280 280 279 279 279 278 278 278 277 276 276 275 274 273 272 272 271 270 269 268 268 267 266 266 265 263 262 261 260 259 258 257 256 255 254 253 252 253 254 254
310 310 310 310 310 310 310 311 311 310 310 309 308 307 305 304 303 302 301 301 301 300 300 299 298 297 296 294 293 292 291 290 289 288 287 286 285 284 283 283 282 281 281 280 280 280 280 279 279 279 279 279 278 278 277 277 276 275 274 274 273 272 271 270 269 268 268 267 266 265 264 262 261 260 259 258 257 256 255 255 254 253 252 252 253
309 309 309 309 310 310 311 311 311 310 310 309 307 306 305 304 303 302 302 302 301 301 300 299 298 297 295 294 294 293 291 290 289 288 287 286 285 284 284 283 282 281 281 280 280 280 279 279 279 279 279 279 278 278 278 277 277 276 275 275 274 273 273 272 271 270 269 268 267 266 264 263 261 260 259 258 258 256 255 255 254 253 252 252 251
309 309 309 310 310 311 311 311 311 310 309 308 306 305 304 304 303 303 302 302 302 301 300 299 298 297 296 295 294 293 292 291 290 290 288 287 286 285 284 283 282 282 281 280 280 279 279 279 279 278 278 278 277 277 277 277 277 276 276 275 274 274 273 273 272 272 271 270 269 268 266 264 262 261 260 258 258 257 256 255 254 253 253 252 251
309 309 309 310 310 311 311 311 310 309 308 307 306 305 305 304 304 303 303 303 302 301 300 299 299 298 297 296 295 294 293 292 291 290 290 289 288 287 286 285 284 283 282 281 281 280 280 279 279 278 278 277 277 277 276 276 276 275 275 274 274 273 273 272 271 271 271 271 270 270 268 267 264 262 260 259 258 257 257 256 255 254 253 252 252
309 309 310 310 311 311 311 311 310 308 307 307 306 305 305 304 304 304 303 303 302 301 301 300 299 298 297 297 296 295 294 293 292 291 290 290 289 288 287 286 285 284 283 282 282 281 281 280 279 279 278 278 277 277 277 276 276 275 274 274 273 273 272 272 271 270 269 269 269 269 268 268 266 264 262 260 259 258 257 256 255 254 253 252 252
309 309 310 311 311 311 310 310 309 308 307 307 306 305 305 305 305 304 304 303 302 302 301 300 299 298 297 297 296 295 294 293 293 292 291 290 290 289 287 286 285 284 284 283 282 282 281 280 280 279 279 278 278 278 277 277 276 275 275 274 274 273 273 272 271 270 269 268 267 267 267 267 266 265 264 263 261 259 257 256 255 254 253 253 252
309 309 310 311 311 310 309 309 308 307 307 306 306 306 305 305 305 304 304 303 302 301 301 300 299 298 297 296 296 295 294 293 293 292 291 290 289 288 287 286 285 285 284 284 283 283 282 281 280 280 279 279 278 278 277 277 276 276 275 275 274 274 273 272 272 271 270 268 267 266 265 265 265 266 265 264 263 261 259 257 255 254 253 253 252
309 310 310 310 310 309 309 308 308 307 307 306 306 305 305 305 304 303 303 302 302 301 300 299 298 298 297 296 295 294 293 293 292 291 290 289 289 288 287 287 286 286 285 285 284 284 283 282 281 280 280 279 278 278 277 277 276 275 275 275 274 274 273 272 272 271 270 269 267 266 265 265 265 265 265 265 264 263 262 259 257 255 253 252 251
309 310 310 309 309 308 308 308 307 307 306 306 305 305 304 304 303 303 302 302 301 300 299 299 298 297 296 295 294 293 292 291 291 290 289 289 288 288 287 287 287 287 287 287 286 285 284 283 282 281 280 280 279 278 278 277 276 276 275 275 275 274 274 273 272 271 270 269 267 266 265 265 265 265 264 264 264 264 263 261 259 257 254 252 251
309 309 309 308 308 308 307 307 306 306 305 305 304 304 303 303 303 302 302 301 300 299 299 298 297 296 295 294 293 292 291 291 290 290 290 290 289 289 289 288 288 288 288 288 287 286 285 284 283 283 282 281 280 280 279 278 277 277 276 276 275 275 274 274 273 272 271 270 269 267 266 265 265 264 264 264 264 263 263 262 261 259 257 254 253
308 308 308 307 307 307 306 306 305 305 304 304 303 303 303 302 302 301 301 300 299 299 298 297 296 295 294 293 292 292 291 291 291 291 291 292 291 291 290 290 290 290 290 289 288 287 286 285 284 283 283 282 281 280 280 279 278 277 277 276 276 275 275 274 273 272 271 270 269 268 267 266 265 264 263 263 263 263 262 262 261 260 259 257 255
307 307 307 307 306 306 305 305 304 303 303 303 302 302 302 302 301 301 300 299 299 298 297 296 295 294 293 293 292 292 292 292 292 293 293 293 292 292 291 291 291 291 290 289 288 287 286 285 284 284 283 282 281 280 280 279 278 277 276 275 275 274 274 274 273 272 271 270 269 269 268 267 266 265 263 262 262 262 262 262 261 260 259 258 257
306 306 306 305 305 304 304 303 303 302 302 302 302 302 302 301 301 300 299 299 298 297 296 296 295 294 293 293 293 293 293 293 294 294 294 294 293 293 292 292 292 291 290 289 288 288 287 286 286 285 284 283 282 282 280 280 279 277 276 275 274 273 273 273 273 272 272 271 270 269 268 268 266 265 264 263 262 262 261 261 260 260 259 259 258
305 305 304 304 304 303 303 302 302 302 302 302 301 301 301 301 300 299 298 298 297 297 296 295 294 294 293 293 293 294 294 295 295 295 295 294 294 293 293 292 292 291 290 290 289 289 288 287 287 286 285 284 284 283 282 281 280 279 278 276 275 273 272 272 272 271 271 271 271 270 270 269 268 266 265 264 263 262 261 261 260 260 259 258 258
304 304 303 303 303 303 302 302 301 302 302 301 301 301 301 300 299 298 298 297 296 296 295 295 294 294 294 294 294 295 295 295 295 295 295 294 294 293 293 292 292 291 291 290 290 289 288 288 287 286 285 284 284 284 283 283 282 281 279 278 277 275 274 273 272 271 271 271 271 271 270 270 269 268 267 266 264 263 262 261 260 260 259 258 257
303 303 303 303 302 302 301 301 301 302 301 301 301 301 300 299 299 298 297 296 296 296 295 295 294 295 295 295 295 295 296 296 295 295 295 295 294 294 293 292 292 291 291 291 290 289 288 287 286 285 284 284 284 284 284 283 282 281 280 279 278 277 276 274 273 272 272 271 270 270 270 271 271 270 269 268 266 264 263 261 260 259 258 258 257
302 302 302 302 302 301 301 301 301 301 301 301 301 300 299 299 298 297 296 296 296 295 295 295 295 295 295 295 295 295 296 295 295 295 295 295 294 294 293 292 292 292 291 291 290 289 288 286 285 283 283 283 283 283 283 283 282 281 280 279 278 277 276 275 274 273 272 272 271 271 271 271 271 271 271 270 268 266 264 263 261 259 258 257 256
302 302 301 301 301 301 301 301 301 301 301 301 300 300 299 298 297 297 296 296 296 295 295 295 295 295 295 295 295 295 295 295 295 295 295 295 295 294 293 292 292 292 292 291 289 288 286 285 284 283 282 282 281 281 281 281 281 281 280 280 279 277 276 275 274 273 273 272 272 272 272 272 271 271 271 270 269 268 266 265 263 261 259 257 256
301 301 300 300 300 300 301 301 301 301 301 300 300 299 298 298 297 296 296 296 295 295 295 295 295 295 295 295 295 295 295 295 295 295 295 295 295 294 293 293 293 293 292 291 290 288 287 285 284 283 282 281 280 280 279 279 280 280 280 280 279 278 277 276 275 274 273 273 273 273 272 272 272 271 271 270 269 268 267 265 264 262 261 259 257
300 300 300 300 300 300 300 300 300 300 300 299 299 298 297 297 296 296 295 295 295 295 295 295 295 295 295 294 294 295 295 295 295 295 295 295 294 294 293 293 293 293 293 292 290 289 288 286 286 285 284 283 281 280 279 279 278 278 278 278 278 278 278 277 277 276 275 274 274 273 273 272 271 270 270 269 268 267 266 265 264 263 262 261 260
299 299 299 299 300 300 300 300 300 300 299 299 298 297 296 296 295 295 295 295 295 294 294 294 294 294 294 294 294 295 295 295 295 295 294 294 294 293 293 293 293 293 293 292 291 290 289 288 288 287 286 285 284 282 281 280 279 278 277 277 277 277 277 278 278 277 276 275 274 273 273 272 271 270 269 268 267 267 266 265 264 263 262 262 261
299 299 299 300 300 300 300 300 300 299 299 298 297 296 295 294 294 294 294 294 294 294 294 294 294 294 294 294 295 295 295 294 294 294 293 293 292 292 292 293 294 294 293 292 292 291 290 290 289 289 288 287 286 285 284 282 281 280 279 277 276 276 276 276 277 277 276 276 274 273 272 271 271 270 269 268 268 267 266 265 264 263 262 262 261
299 299 299 300 300 300 300 299 299 298 297 296 295 295 294 294 293 293 294 294 294 294 293 293 294 294 294 294 294 294 294 294 293 293 293 292 292 292 292 293 294 294 294 293 292 292 291 291 290 289 289 288 287 286 286 284 283 282 281 279 278 277 276 275 275 274 274 274 273 272 271 270 270 270 269 269 268 268 268 267 265 263 262 261 260
299 299 299 299 299 299 299 298 297 297 296 295 295 294 294 293 293 293 293 293 293 293 293 294 294 294 294 294 294 294 293 293 293 293 293 292 292 292 292 293 294 294 293 293 292 292 292 291 290 290 289 288 288 287 286 285 284 283 282 281 280 279 277 276 275 273 272 272 271 270 270 269 269 269 269 269 268 268 268 268 267 265 263 262 261
299 299 299 298 298 298 298 297 296 296 295 294 294 293 293 293 293 294 293 293 293 293 293 294 294 294 294 294 294 293 293 292 292 292 292 292 292 292 292 293 293 293 292 292 292 292 292 291 291 290 290 289 288 288 287 286 285 284 283 282 281 280 279 277 276 274 273 272 270 269 269 268 268 268 268 268 268 268 268 268 267 266 264 263 262
298 298 298 298 297 297 297 296 295 294 294 293 293 292 293 293 293 294 293 293 293 293 293 293 293 293 294 294 293 293 292 292 292 292 292 292 292 292 292 293 292 291 291 292 292 292 291 291 291 290 290 289 289 288 287 286 286 285 284 283 282 280 279 278 277 275 274 272 271 269 268 267 267 266 266 267 267 267 267 266 266 265 265 264 263
297 297 297 297 297 296 295 294 294 293 293 292 292 292 293 293 293 293 293 293 293 293 293 293 293 293 293 293 293 293 292 292 292 292 293 293 293 292 292 292 291 291 291 292 292 291 291 291 291 290 290 289 289 288 287 286 286 285 284 283 282 281 280 278 277 276 275 273 272 270 269 268 267 266 266 266 266 266 266 266 265 265 264 263 262
296 296 297 296 296 295 294 293 293 292 292 292 292 292 293 293 293 293 293 293 293 293 293 293 293 292 292 293 293 292 292 292 292 293 293 294 293 292 292 292 291 291 291 292 291 291 291 291 291 291 290 289 289 288 287 287 286 285 284 283 282 281 280 278 277 276 275 274 272 271 270 269 268 267 266 266 265 265 265 265 265 264 263 262 261
295 296 296 295 294 294 293 293 292 292 291 291 292 292 292 292 292 292 292 292 292 292 293 293 293 293 293 293 293 292 292 292 293 294 294 294 292 292 293 292 291 291 292 292 291 291 291 291 291 291 290 290 289 288 287 287 286 285 284 283 282 281 280 279 278 277 276 275 273 272 270 269 268 268 267 267 266 265 264 264 263 263 263 262 261
295 295 294 294 294 293 293 293 292 292 292 292 292 292 292 292 292 292 292 292 292 292 293 293 293 294 294 294 293 292 292 293 293 294 294 293 292 292 292 292 291 292 292 292 291 291 291 291 291 290 290 289 289 288 288 287 286 285 285 283 282 281 280 279 278 278 277 276 275 274 272 271 269 268 267 266 266 266 265 264 263 263 262 262 261
294 294 294 294 294 293 293 293 293 292 292 292 292 292 292 292 291 292 292 292 292 293 293 294 294 294 294 294 293 293 293 293 294 294 293 292 291 292 291 291 291 292 292 292 292 292 291 291 290 290 289 289 288 288 287 287 286 285 284 283 282 281 280 279 279 278 277 275 274 273 273 272 271 269 268 267 266 265 265 264 263 262 262 261 261
294 294 294 294 294 294 294 294 294 294 293 293 293 292 292 292 292 292 292 293 293 293 294 294 293 293 294 293 293 293 294 294 294 293 292 291 292 292 291 290 290 291 291 291 292 292 291 291 290 289 288 288 287 287 287 286 285 285 283 282 282 281 280 280 279 278 277 276 275 274 273 273 272 271 270 269 268 267 266 265 264 263 262 261 260
294 294 294 294 295 295 295 295 295 294 294 294 293 293 292 292 292 293 293 293 293 293 293 293 293 293 293 293 294 294 294 294 293 292 291 291 292 292 291 291 290 290 290 291 291 291 291 291 290 289 288 287 287 287 286 286 285 285 284 283 282 282 281 280 280 279 279 278 277 276 275 275 274 273 272 271 269 268 267 266 265 265 264 263 261
294 295 295 295 295 295 295 295 295 294 294 294 293 293 292 293 293 293 293 293 293 294 293 293 293 293 293 294 294 294 294 294 293 291 291 291 292 292 291 291 290 290 290 290 290 290 290 290 289 288 288 287 287 287 286 286 285 285 284 283 283 282 282 281 280 280 279 279 279 278 278 277 276 275 273 272 271 269 268 267 265 264 264 264 263
295 295 295 295 295 295 295 294 294 294 293 293 293 292 292 293 293 293 294 294 294 294 293 293 293 294 294 294 294 294 293 293 292 290 291 292 292 291 291 291 290 290 290 290 290 290 289 289 288 288 287 287 287 287 286 286 285 285 284 284 283 282 281 281 280 279 278 278 277 277 277 277 276 275 274 273 272 270 269 268 266 265 264 264 263
295 295 295 295 295 294 294 294 293 293 292 292 292 292 293 293 293 294 294 294 294 293 293 293 294 293 293 293 293 293 293 292 291 290 291 291 291 291 290 290 290 290 290 290 290 289 288 288 287 287 286 286 286 286 286 285 285 284 284 283 282 281 280 279 278 277 277 276 275 275 275 274 274 273 273 272 271 270 269 268 267 266 264 263 263
294 294 294 294 294 294 293 293 292 292 292 292 292 292 293 293 294 294 294 293 293 293 293 293 293 292 292 292 292 292 292 291 289 290 291 291 290 290 290 289 289 290 290 289 289 289 288 287 286 286 285 285 285 285 284 284 284 283 283 283 282 281 279 278 277 277 276 275 274 274 273 273 273 272 272 271 270 270 269 268 268 267 265 264 263
294 294 294 294 293 293 293 292 292 292 293 293 293 293 293 293 293 293 293 292 292 293 292 292 291 291 292 291 291 291 291 289 289 290 291 290 290 289 289 289 289 289 289 288 288 287 287 286 285 285 285 284 283 283 283 283 283 283 282 282 282 281 280 279 279 279 278 277 276 275 274 273 273 272 272 271 271 270 269 268 268 267 267 265 264
293 293 293 293 292 292 292 292 293 293 293 293 293 293 293 293 292 292 292 292 292 292 291 291 291 291 291 290 291 290 289 288 289 290 290 289 289 289 288 288 288 288 287 287 286 286 285 285 284 284 284 284 283 282 281 281 282 282 282 281 281 281 281 280 280 280 280 279 278 277 276 275 274 273 272 272 271 270 270 269 268 267 267 266 265
293 292 292 292 292 292 292 292 292 292 292 292 292 292 292 292 292 292 292 292 291 291 290 290 290 290 290 290 290 289 288 288 289 289 288 288 288 288 288 287 287 287 286 285 284 284 283 283 283 284 284 283 282 282 281 281 281 282 281 280 280 280 280 281 281 281 280 280 279 278 278 276 275 274 274 273 272 271 270 269 269 268 267 267 266
292 292 292 292 292 292 292 291 291 291 291 292 292 292 291 291 291 291 291 291 290 290 289 289 289 289 289 289 289 288 287 288 287 287 286 287 287 287 287 287 287 285 284 283 282 282 282 282 282 283 283 283 282 281 281 281 281 281 280 280 280 280 280 281 281 281 281 280 279 278 277 276 276 275 274 274 273 272 271 270 270 269 268 267 266
291 291 291 291 291 291 291 290 291 291 291 291 291 291 290 290 290 290 290 290 289 289 288 288 288 288 288 288 287 287 286 286 286 286 286 286 286 286 286 286 285 284 282 282 281 280 280 281 282 282 282 282 282 281 281 281 281 281 281 280 280 280 280 280 280 280 280 280 279 278 277 276 276 276 275 274 274 273 272 271 270 270 269 268 267
Height
10541 10536 10530 10525 10520 10515 10510 10505 10501 10497 10492 10486 10479 10471 10462 10453 10444 10436 10429 10421 10414 10406 10399 10392 10386 10380 10375 10370 10365 10360 10356 10351 10347 10343 10339 10335 10331 10327 10324 10321 10318 10315 10313 10311 10309 10307 10305 10303 10301 10300 10298 10296 10295 10293 10293 10292 10291 10291 10291 10292 10294 10294 10296 10300 10305 10318 10328 10323 10323 10332 10329 10324 10328 10326 10319 10321 10325 10323 10326 10333 10339 10344 10349 10356 10364
10527 10521 10516 10511 10506 10501 10495 10491 10486 10482 10476 10470 10462 10453 10444 10435 10427 10420 10412 10404 10397 10389 10381 10375 10368 10363 10358 10353 10349 10344 10340 10335 10332 10328 10324 10320 10316 10312 10308 10305 10302 10299 10296 10293 10291 10289 10287 10285 10283 10282 10280 10278 10277 10275 10274 10273 10272 10273 10272 10272 10274 10275 10274 10278 10283 10290 10303 10307 10304 10309 10312 10307 10310 10314 10305 10300 10306 10306 10304 10309 10314 10319 10327 10334 10341
10512 10507 10502 10497 10491 10486 10481 10476 10471 10466 10460 10452 10443 10435 10426 10418 10410 10403 10395 10387 10379 10371 10364 10357 10351 10346 10341 10337 10332 10327 10324 10320 10316 10312 10308 10304 10300 10296 10292 10289 10286 10283 10280 10277 10274 10272 10270 10268 10265 10264 10262 10260 10259 10257 10256 10256 10255 10254 10254 10253 10254 10257 10256 10257 10262 10267 10276 10287 10286 10285 10289 10288 10288 10295 10292 10283 10286 10290 10288 10289 10292 10294 10302 10311 10318
10498 10493 10488 10483 10477 10471 10466 10460 10455 10448 10441 10433 10425 10417 10409 10401 10393 10385 10377 10369 10361 10353 10347 10340 10335 10330 10325 10320 10316 10312 10308 10304 10300 10296 10292 10288 10283 10279 10275 10272 10269 10265 10263 10260 10257 10255 10253 10250 10248 10245 10244 10243 10241 10240 10238 10238 10238 10237 10236 10237 10236 10238 10239 10239 10242 10247 10252 10263 10268 10265 10266 10269 10267 10272 10274 10269 10269 10273 10272 10270 10272 10274 10279 10287 10293
10484 10479 10474 10468 10461 10455 10449 10443 10437 10430 10423 10416 10408 10400 10392 10384 10376 10368 10360 10352 10344 10337 10330 10325 10320 10315 10310 10305 10300 10296 10292 10288 10284 10280 10275 10271 10266 10262 10258 10255 10251 10248 10245 10242 10240 10238 10236 10233 10231 10228 10226 10225 10224 10223 10222 10220 10220 10220 10220 10221 10221 10221 10223 10222 10223 10227 10231 10239 10247 10247 10246 10249 10250 10251 10254 10253 10254 10258 10256 10253 10254 10257 10260 10264 10269
10470 10464 10458 10452 10445 10439 10432 10426 10419 10413 10406 10399 10392 10384 10375 10367 10358 10350 10343 10335 10328 10321 10314 10309 10305 10300 10296 10291 10286 10281 10277 10273 10269 10264 10259 10255 10250 10246 10242 10238 10235 10231 10227 10225 10222 10221 10219 10216 10214 10212 10209 10208 10207 10206 10206 10205 10204 10205 10204 10205 10206 10205 10206 10206 10206 10208 10212 10217 10225 10229 10229 10231 10232 10233 10234 10233 10236 10241 10241 10237 10237 10240 10243 10244 10248
10455 10449 10442 10435 10428 10421 10415 10409 10403 10396 10390 10383 10375 10367 10358 10349 10341 10333 10326 10318 10311 10305 10299 10295 10290 10285 10280 10275 10271 10266 10262 10258 10254 10249 10244 10240 10235 10231 10227 10223 10219 10215 10211 10209 10206 10204 10202 10199 10197 10195 10193 10192 10191 10190 10190 10190 10190 10190 10189 10189 10190 10189 10189 10189 10190 10191 10194 10197 10203 10208 10212 10214 10213 10214 10214 10214 10216 10221 10223 10222 10223 10224 10224 10226 10231
10439 10432 10425 10418 10411 10404 10398 10392 10387 10380 10373 10366 10358 10350 10341 10332 10324 10316 10309 10302 10295 10289 10284 10279 10275 10269 10264 10259 10254 10251 10247 10243 10238 10233 10229 10225 10221 10217 10213 10209 10204 10201 10197 10194 10191 10188 10185 10183 10181 10179 10177 10175 10174 10174 10173 10174 10175 10174 10173 10173 10173 10173 10172 10173 10174 10174 10176 10179 10183 10188 10192 10195 10195 10195 10195 10195 10197 10200 10201 10204 10210 10211 10207 10208 10214
10422 10415 10408 10401 10395 10388 10382 10375 10369 10363 10356 10348 10340 10332 10323 10315 10307 10300 10293 10286 10279 10274 10269 10264 10258 10253 10248 10243 10238 10235 10231 10227 10223 10218 10214 10211 10207 10203 10199 10194 10190 10187 10183 10179 10176 10173 10170 10168 10165 10163 10161 10159 10158 10158 10157 10157 10158 10159 10157 10156 10155 10155 10156 10156 10157 10158 10159 10162 10165 10169 10172 10175 10175 10176 10177 10176 10177 10181 10181 10184 10192 10197 10193 10192 10196
10405 10398 10392 10386 10379 10373 10365 10358 10352 10345 10338 10330 10322 10314 10306 10298 10290 10283 10276 10270 10263 10258 10253 10248 10242 10237 10232 10227 10223 10219 10216 10212 10207 10203 10200 10196 10193 10189 10184 10180 10176 10173 10169 10165 10161 10158 10155 10154 10151 10148 10146 10144 10143 10142 10141 10141 10142 10142 10142 10141 10139 10138 10139 10140 10141 10142 10144 10145 10148 10150 10153 10155 10155 10156 10159 10158 10158 10161 10163 10165 10172 10178 10179 10180 10183
10388 10383 10376 10370 10363 10356 10348 10341 10334 10327 10319 10311 10304 10296 10288 10281 10273 10266 10260 10253 10248 10242 10236 10231 10226 10221 10216 10211 10207 10203 10200 10196 10191 10187 10184 10181 10178 10175 10170 10166 10163 10159 10156 10152 10148 10145 10142 10140 10137 10134 10132 10130 10129 10127 10126 10126 10126 10126 10126 10125 10124 10123 10123 10124 10125 10125 10127 10129 10131 10132 10134 10137 10137 10138 10141 10141 10139 10140 10144 10149 10154 10160 10162 10165 10171
10372 10366 10359 10352 10346 10339 10332 10324 10316 10308 10300 10293 10285 10278 10270 10263 10256 10250 10243 10237 10231 10225 10220 10215 10209 10205 10200 10195 10191 10187 10183 10179 10175 10171 10169 10166 10163 10160 10156 10153 10149 10145 10142 10139 10136 10132 10130 10127 10124 10121 10118 10115 10114 10114 10113 10113 10112 10111 10111 10110 10108 10107 10107 10109 10110 10110 10110 10112 10114 10114 10115 10118 10121 10122 10123 10122 10120 10122 10127 10134 10138 10143 10146 10148 10153
10355 10349 10342 10335 10329 10322 10314 10307 10298 10290 10282 10274 10267 10260 10252 10246 10240 10233 10227 10221 10215 10209 10203 10198 10193 10188 10183 10179 10174 10171 10167 10163 10159 10156 10154 10151 10148 10145 10142 10138 10135 10132 10128 10125 10123 10119 10116 10114 10110 10107 10104 10102 10101 10101 10101 10100 10099 10097 10096 10094 10093 10092 10093 10094 10096 10096 10097 10097 10098 10097 10096 10099 10103 10104 10104 10103 10104 10106 10112 10119 10122 10126 10130 10132 10134
10338 10331 10324 10318 10311 10304 10297 10289 10280 10272 10264 10257 10249 10242 10235 10229 10223 10217 10211 10204 10198 10193 10187 10182 10177 10172 10168 10164 10159 10156 10152 10148 10144 10142 10139 10137 10134 10130 10127 10124 10120 10117 10115 10112 10109 10106 10103 10100 10097 10094 10091 10089 10087 10088 10088 10087 10085 10083 10081 10079 10078 10077 10078 10079 10079 10081 10084 10085 10085 10083 10079 10079 10082 10084 10085 10085 10089 10093 10098 10103 10106 10109 10114 10117 10118
10321 10313 10306 10300 10293 10286 10279 10271 10263 10255 10247 10240 10233 10226 10219 10213 10207 10201 10195 10189 10183 10177 10172 10167 10162 10157 10153 10149 10145 10141 10138 10134 10130 10128 10125 10123 10121 10117 10113 10110 10107 10104 10102 10099 10096 10092 10089 10087 10084 10082 10079 10076 10074 10075 10075 10073 10071 10069 10067 10065 10063 10062 10062 10062 10063 10066 10069 10071 10072 10069 10065 10062 10063 10065 10067 10069 10073 10079 10084 10087 10090 10093 10098 10101 10102
10303 10296 10290 10283 10275 10268 10261 10254 10247 10239 10231 10224 10217 10210 10204 10198 10192 10186 10180 10174 10168 10163 10158 10153 10148 10144 10139 10135 10132 10127 10124 10121 10117 10114 10113 10110 10108 10104 10100 10097 10094 10091 10089 10086 10082 10079 10076 10073 10071 10069 10066 10063 10062 10061 10061 10060 10058 10056 10053 10051 10049 10048 10047 10046 10048 10050 10053 10054 10055 10054 10051 10048 10048 10050 10051 10053 10057 10062 10068 10072 10075 10078 10083 10086 10085
10287 10281 10274 10266 10258 10251 10245 10238 10231 10223 10216 10209 10202 10196 10190 10183 10177 10172 10166 10160 10155 10149 10144 10139 10135 10131 10126 10122 10119 10115 10112 10108 10105 10102 10100 10099 10096 10092 10088 10084 10081 10078 10076 10073 10069 10066 10063 10060 10057 10056 10053 10050 10049 10047 10047 10047 10045 10043 10041 10038 10035 10033 10032 10033 10034 10034 10035 10037 10038 10037 10035 10034 10035 10037 10038 10039 10041 10045 10051 10056 10058 10062 10068 10069 10067
10273 10266 10258 10250 10242 10236 10229 10222 10215 10208 10201 10194 10188 10182 10176 10170 10164 10158 10152 10147 10141 10136 10131 10126 10122 10117 10113 10109 10107 10103 10099 10096 10093 10090 10088 10087 10084 10079 10075 10072 10069 10066 10063 10060 10056 10053 10050 10047 10044 10042 10041 10038 10035 10034 10033 10033 10033 10030 10029 10026 10023 10020 10018 10019 10020 10019 10019 10019 10020 10020 10021 10021 10021 10023 10024 10026 10027 10030 10035 10038 10040 10046 10051 10051 10049
10258 10250 10241 10234 10227 10221 10214 10206 10200 10193 10186 10180 10174 10168 10162 10156 10151 10145 10139 10134 10128 10123 10118 10113 10109 10104 10100 10096 10093 10091 10087 10083 10080 10077 10075 10073 10070 10066 10062 10059 10056 10054 10050 10047 10043 10040 10037 10035 10031 10028 10027 10025 10022 10020 10019 10019 10020 10018 10016 10014 10011 10007 10005 10006 10005 10004 10004 10003 10003 10004 10006 10007 10008 10010 10011 10012 10013 10015 10019 10022 10025 10029 10033 10033 10033
10242 10233 10226 10219 10213 10206 10199 10192 10186 10179 10172 10167 10161 10155 10149 10143 10138 10132 10126 10120 10115 10110 10105 10100 10096 10091 10086 10083 10080 10077 10074 10070 10067 10064 10061 10059 10056 10052 10048 10046 10043 10041 10038 10034 10030 10027 10024 10022 10019 10015 10014 10012 10009 10008 10006 10005 10007 10006 10003 10002 9999 9996 9993 9992 9990 9989 9990 9989 9988 9988 9989 9991 9994 9996 9997 9998 9999 10001 10005 10008 10010 10013 10015 10016 10018
10225 10218 10211 10205 10199 10193 10186 10179 10172 10165 10159 10153 10147 10141 10135 10130 10124 10118 10112 10107 10102 10097 10092 10087 10083 10078 10074 10070 10067 10064 10061 10057 10054 10051 10048 10045 10043 10039 10036 10033 10031 10029 10026 10021 10017 10014 10012 10010 10007 10003 10001 9998 9996 9995 9994 9993 9993 9993 9992 9990 9989 9985 9982 9979 9976 9975 9976 9976 9974 9973 9974 9976 9979 9981 9983 9985 9986 9989 9991 9993 9995 9998 10000 10001 10003
10210 10204 10198 10191 10186 10180 10173 10166 10158 10151 10145 10139 10133 10127 10122 10116 10111 10105 10099 10094 10089 10084 10079 10074 10070 10066 10061 10057 10054 10051 10048 10045 10042 10039 10036 10032 10029 10026 10023 10020 10018 10017 10014 10010 10005 10002 10000 9997 9995 9991 9987 9985 9982 9981 9981 9980 9979 9979 9979 9979 9978 9975 9972 9969 9965 9963 9963 9962 9961 9961 9960 9962 9964 9966 9968 9971 9974 9976 9978 9979 9981 9984 9986 9987 9989
10196 10190 10183 10177 10172 10165 10158 10151 10144 10137 10132 10125 10119 10114 10109 10103 10097 10092 10086 10082 10077 10072 10067 10062 10058 10054 10049 10045 10042 10038 10035 10033 10030 10027 10024 10020 10017 10014 10011 10007 10005 10004 10002 9998 9994 9990 9988 9986 9983 9979 9975 9971 9969 9968 9967 9967 9967 9966 9966 9966 9966 9964 9962 9959 9955 9953 9951 9949 9948 9948 9947 9948 9950 9952 9954 9957 9960 9962 9964 9965 9967 9970 9973 9974 9975
10181 10174 10168 10162 10156 10150 10143 10136 10130 10124 10118 10111 10105 10100 10095 10089 10083 10078 10073 10069 10065 10060 10055 10050 10045 10042 10038 10034 10030 10026 10023 10020 10017 10014 10012 10008 10004 10001 9998 9995 9992 9991 9989 9987 9983 9979 9977 9975 9973 9969 9964 9960 9957 9955 9954 9954 9954 9953 9952 9952 9952 9951 9950 9947 9945 9942 9940 9938 9937 9936 9935 9935 9937 9939 9941 9943 9946 9948 9950 9952 9955 9958 9960 9960 9961
10164 10157 10151 10146 10140 10133 10126 10120 10115 10110 10103 10097 10091 10086 10081 10075 10070 10064 10060 10056 10052 10048 10042 10038 10034 10030 10027 10023 10018 10014 10011 10007 10004 10001 9999 9995 9992 9988 9986 9982 9980 9978 9976 9974 9971 9968 9966 9964 9962 9958 9954 9950 9947 9944 9942 9941 9941 9940 9939 9939 9939 9938 9937 9936 9933 9931 9929 9927 9926 9925 9924 9924 9924 9925 9927 9930 9932 9934 9936 9939 9943 9944 9945 9946 9947
10148 10141 10134 10128 10123 10117 10110 10105 10100 10095 10089 10083 10077 10072 10066 10061 10056 10051 10046 10042 10039 10035 10030 10026 10022 10019 10015 10011 10007 10003 9999 9995 9992 9988 9986 9982 9979 9976 9972 9970 9968 9965 9963 9962 9959 9956 9954 9952 9950 9948 9945 9942 9938 9935 9931 9929 9929 9928 9927 9926 9926 9926 9925 9924 9922 9920 9918 9915 9914 9914 9913 9913 9913 9913 9914 9916 9918 9919 9922 9926 9930 9931 9931 9933 9934
10135 10128 10119 10112 10107 10102 10096 10091 10086 10081 10075 10069 10064 10058 10052 10047 10042 10037 10032 10029 10026 10021 10017 10014 10010 10007 10004 10000 9996 9992 9987 9983 9980 9977 9973 9970 9966 9963 9959 9957 9956 9954 9951 9949 9947 9945 9942 9940 9938 9936 9934 9932 9929 9926 9922 9919 9917 9916 9915 9914 9913 9913 9913 9912 9910 9909 9907 9905 9904 9903 9902 9902 9902 9901 9902 9903 9904 9905 9908 9912 9916 9917 9917 9919 9922
10121 10114 10105 10098 10093 10088 10083 10077 10072 10067 10063 10057 10051 10044 10038 10033 10028 10023 10019 10016 10013 10009 10005 10002 9999 9996 9992 9988 9984 9981 9976 9972 9969 9966 9962 9958 9955 9950 9947 9945 9944 9942 9939 9937 9935 9933 9930 9927 9925 9924 9923 9921 9919 9916 9913 9910 9908 9906 9904 9901 9900 9900 9900 9900 9899 9898 9897 9895 9894 9893 9892 9891 9891 9890 9890 9891 9891 9892 9895 9898 9902 9903 9903 9905 9909
10106 10099 10091 10085 10080 10075 10070 10064 10058 10054 10049 10044 10038 10032 10026 10021 10016 10011 10007 10004 10000 9996 9993 9990 9986 9984 9981 9976 9973 9969 9965 9961 9957 9954 9951 9947 9943 9939 9935 9933 9933 9931 9928 9925 9923 9920 9917 9915 9913 9912 9910 9908 9907 9904 9902 9900 9898 9897 9895 9891 9889 9887 9887 9887 9887 9886 9886 9886 9884 9883 9881 9881 9880 9879 9879 9879 9878 9879 9882 9886 9889 9891 9890 9892 9895
10090 10083 10077 10071 10067 10062 10057 10051 10045 10040 10036 10031 10026 10019 10014 10009 10004 10000 9996 9992 9988 9984 9981 9978 9975 9972 9969 9965 9961 9958 9954 9950 9946 9943 9940 9936 9932 9927 9923 9922 9921 9920 9917 9914 9911 9909 9906 9903 9901 9899 9896 9895 9894 9892 9890 9889 9887 9886 9885 9883 9880 9878 9877 9876 9875 9874 9874 9875 9874 9873 9871 9870 9869 9868 9868 9867 9867 9867 9869 9873 9877 9879 9879 9880 9882
10075 10069 10063 10058 10053 10048 10043 10038 10032 10026 10022 10018 10012 10007 10002 9997 9993 9988 9984 9980 9976 9972 9969 9966 9963 9961 9957 9953 9950 9947 9943 9939 9936 9933 9930 9927 9921 9916 9912 9910 9910 9908 9906 9903 9900 9897 9895 9892 9889 9887 9884 9882 9881 9879 9878 9876 9875 9874 9874 9873 9871 9869 9868 9867 9866 9864 9863 9863 9863 9862 9861 9859 9858 9857 9856 9856 9856 9856 9857 9861 9865 9868 9868 9869 9870
10060 10055 10049 10044 10040 10035 10030 10025 10019 10014 10009 10004 9999 9994 9989 9985 9981 9977 9973 9969 9964 9960 9956 9954 9952 9950 9946 9943 9940 9936 9932 9928 9924 9921 9919 9916 9911 9906 9901 9899 9898 9896 9894 9891 9888 9886 9884 9881 9878 9876 9873 9871 9869 9868 9866 9864 9863 9862 9861 9861 9860 9860 9859 9858 9857 9856 9855 9853 9852 9852 9851 9850 9848 9847 9845 9845 9845 9845 9846 9849 9853 9856 9857 9858 9859
10044 10040 10036 10031 10026 10021 10017 10012 10006 10001 9996 9991 9986 9982 9977 9972 9968 9965 9961 9958 9954 9949 9944 9941 9940 9938 9935 9932 9929 9926 9922 9917 9913 9910 9908 9905 9900 9896 9892 9889 9887 9885 9882 9879 9877 9875 9873 9870 9868 9865 9863 9861 9859 9857 9855 9854 9852 9851 9850 9849 9848 9848 9848 9848 9847 9846 9846 9845 9843 9842 9841 9840 9839 9837 9836 9835 9836 9836 9836 9838 9840 9843 9845 9847 9847
10029 10025 10021 10017 10012 10008 10004 9999 9993 9988 9983 9979 9974 9969 9964 9960 9956 9952 9948 9945 9942 9939 9936 9931 9928 9925 9923 9921 9919 9915 9910 9906 9903 9901 9898 9894 9889 9885 9881 9878 9876 9874 9871 9868 9866 9864 9862 9860 9858 9855 9853 9851 9849 9847 9845 9843 9842 9840 9840 9839 9838 9837 9836 9836 9836 9836 9835 9835 9834 9833 9832 9831 9830 9828 9827 9826 9827 9827 9827 9827 9829 9831 9833 9835 9836
10013 10010 10007 10003 9998 9994 9991 9986 9981 9975 9970 9966 9961 9957 9953 9949 9945 9940 9935 9931 9928 9926 9924 9922 9919 9915 9911 9908 9906 9903 9899 9895 9892 9890 9888 9885 9880 9874 9871 9868 9865 9863 9861 9859 9856 9853 9851 9849 9847 9846 9843 9841 9839 9837 9835 9833 9832 9830 9829 9829 9828 9827 9826 9826 9825 9825 9825 9825 9824 9823 9822 9821 9820 9820 9818 9817 9818 9818 9818 9818 9819 9821 9822 9823 9824
9998 9994 9992 9989 9985 9981 9977 9973 9968 9963 9958 9953 9949 9945 9941 9937 9933 9928 9924 9919 9915 9911 9909 9908 9908 9907 9903 9898 9894 9890 9886 9884 9882 9880 9878 9875 9870 9864 9861 9858 9854 9852 9851 9849 9846 9843 9841 9839 9837 9835 9834 9832 9830 9828 9826 9824 9822 9821 9820 9819 9818 9817 9817 9816 9815 9815 9814 9814 9814 9813 9812 9812 9811 9811 9810 9809 9809 9809 9808 9808 9810 9811 9812 9813 9813
9983 9980 9978 9975 9971 9968 9964 9960 9956 9951 9946 9941 9937 9933 9930 9925 9921 9917 9913 9908 9904 9899 9895 9893 9893 9893 9893 9890 9885 9878 9873 9871 9870 9869 9868 9865 9860 9855 9851 9848 9843 9841 9841 9840 9837 9834 9832 9829 9826 9825 9823 9822 9820 9818 9816 9815 9813 9812 9811 9810 9808 9807 9806 9806 9805 9805 9805 9804 9804 9803 9803 9802 9802 9802 9801 9801 9800 9800 9800 9800 9800 9801 9801 9803 9804
9971 9967 9964 9961 9958 9955 9951 9947 9943 9938 9934 9929 9925 9921 9917 9913 9909 9906 9902 9897 9893 9889 9885 9881 9879 9877 9879 9879 9875 9868 9862 9858 9856 9856 9856 9854 9850 9845 9841 9837 9832 9830 9830 9830 9827 9825 9822 9820 9817 9815 9813 9812 9810 9809 9807 9806 9804 9803 9802 9801 9799 9798 9796 9796 9795 9795 9795 9795 9794 9794 9793 9793 9793 9793 9792 9792 9791 9791 9791 9792 9792 9791 9791 9793 9795
9959 9955 9950 9947 9944 9941 9937 9934 9930 9926 9922 9918 9914 9909 9905 9901 9898 9894 9891 9887 9883 9879 9875 9870 9866 9864 9864 9865 9863 9859 9854 9849 9845 9844 9843 9842 9840 9837 9832 9826 9821 9820 9819 9818 9817 9815 9813 9811 9808 9806 9803 9802 9800 9799 9798 9797 9795 9794 9793 9791 9790 9789 9787 9786 9786 9786 9786 9785 9784 9784 9783 9784 9784 9784 9784 9783 9783 9782 9782 9782 9783 9783 9782 9783 9785
9947 9942 9938 9934 9930 9927 9924 9920 9916 9913 9909 9906 9902 9898 9894 9890 9886 9883 9879 9876 9872 9868 9864 9860 9855 9852 9851 9851 9849 9847 9844 9840 9836 9834 9831 9829 9829 9828 9825 9818 9813 9810 9808 9807 9806 9805 9804 9802 9800 9797 9795 9793 9791 9790 9789 9788 9787 9786 9784 9783 9781 9780 9778 9777 9777 9777 9777 9776 9775 9775 9774 9774 9775 9775 9775 9775 9774 9774 9773 9773 9774 9774 9774 9774 9775
9933 9929 9925 9921 9917 9913 9910 9906 9902 9899 9896 9892 9889 9885 9881 9878 9875 9871 9868 9864 9860 9856 9853 9849 9845 9842 9840 9838 9836 9835 9833 9830 9827 9824 9821 9817 9817 9817 9815 9810 9805 9802 9799 9797 9796 9794 9793 9792 9790 9788 9787 9785 9783 9782 9780 9779 9778 9777 9775 9774 9773 9771 9770 9769 9768 9768 9768 9767 9766 9766 9766 9765 9766 9766 9765 9765 9765 9765 9765 9764 9765 9765 9765 9765 9766
9919 9915 9911 9908 9904 9900 9896 9892 9889 9886 9882 9879 9876 9872 9868 9865 9862 9859 9856 9853 9850 9846 9842 9838 9834 9832 9830 9828 9826 9824 9822 9819 9817 9813 9810 9808 9806 9805 9803 9800 9797 9793 9790 9788 9786 9785 9783 9782 9780 9779 9777 9776 9774 9773 9772 9770 9769 9767 9766 9765 9764 9762 9761 9760 9759 9759 9758 9758 9757 9756 9756 9756 9757 9757 9756 9756 9757 9757 9756 9756 9756 9756 9756 9756 9757
9905 9901 9898 9894 9891 9887 9884 9880 9876 9873 9870 9867 9863 9860 9857 9853 9850 9847 9845 9842 9838 9835 9831 9827 9824 9821 9819 9818 9816 9813 9810 9808 9806 9802 9799 9798 9797 9794 9791 9789 9786 9784 9781 9779 9778 9776 9774 9773 9771 9769 9768 9766 9765 9764 9763 9762 9760 9758 9757 9756 9755 9754 9752 9751 9751 9750 9750 9749 9748 9747 9747 9747 9748 9748 9748 9748 9748 9748 9748 9748 9748 9748 9748 9747 9748
9891 9888 9885 9881 9878 9875 9872 9868 9865 9862 9858 9855 9851 9848 9845 9842 9839 9836 9833 9830 9827 9824 9820 9816 9813 9811 9808 9807 9805 9802 9800 9797 9794 9791 9789 9788 9787 9784 9782 9779 9776 9773 9772 9770 9768 9767 9766 9764 9762 9761 9759 9758 9756 9755 9754 9753 9751 9750 9748 9748 9747 9746 9745 9743 9742 9742 9742 9742 9741 9740 9739 9739 9739 9739 9739 9739 9739 9739 9739 9739 9739 9740 9740 9740 9739
9879 9875 9872 9869 9866 9863 9859 9856 9853 9850 9847 9843 9840 9837 9833 9830 9828 9825 9822 9819 9816 9813 9809 9806 9803 9800 9797 9796 9794 9792 9790 9786 9783 9780 9779 9778 9777 9775 9773 9770 9766 9764 9762 9760 9758 9757 9756 9755 9754 9753 9752 9750 9749 9747 9746 9745 9743 9742 9740 9739 9739 9738 9737 9736 9735 9735 9735 9734 9734 9733 9733 9732 9731 9731 9731 9731 9731 9731 9731 9731 9731 9731 9732 9732 9732
9866 9863 9859 9856 9854 9850 9847 9844 9841 9838 9835 9832 9829 9825 9822 9819 9816 9814 9811 9808 9805 9802 9799 9796 9793 9790 9787 9785 9783 9782 9779 9776 9772 9770 9769 9768 9766 9765 9763 9761 9758 9756 9753 9751 9749 9747 9746 9745 9745 9744 9744 9743 9742 9740 9738 9737 9736 9734 9733 9731 9730 9730 9729 9728 9727 9727 9727 9727 9726 9726 9725 9725 9724 9723 9723 9723 9723 9723 9723 9723 9723 9723 9723 9724 9724
9854 9850 9847 9844 9841 9838 9835 9832 9829 9826 9823 9820 9817 9814 9811 9808 9805 9802 9800 9797 9795 9792 9789 9785 9782 9780 9777 9774 9772 9771 9769 9766 9762 9761 9759 9758 9756 9755 9753 9752 9750 9748 9745 9743 9740 9738 9737 9736 9735 9735 9735 9735 9734 9733 9731 9729 9728 9727 9726 9724 9722 9721 9720 9719 9719 9719 9718 9718 9718 9718 9718 9717 9717 9716 9716 9716 9715 9715 9715 9715 9715 9715 9715 9716 9716
9842 9838 9835 9832 9828 9826 9823 9820 9817 9814 9811 9808 9805 9803 9800 9797 9794 9791 9789 9786 9784 9781 9778 9775 9772 9770 9767 9765 9762 9761 9759 9755 9753 9751 9750 9748 9746 9745 9744 9743 9741 9739 9737 9735 9733 9730 9728 9727 9726 9726 9726 9726 9726 9725 9723 9722 9721 9720 9719 9717 9716 9714 9713 9712 9711 9711 9710 9710 9710 9710 9709 9709 9709 9709 9708 9708 9708 9708 9708 9708 9708 9708 9707 9708 9709
9830 9826 9823 9820 9817 9814 9811 9808 9806 9803 9800 9797 9794 9791 9788 9785 9783 9780 9778 9776 9773 9770 9767 9764 9761 9759 9757 9755 9753 9751 9748 9746 9744 9742 9740 9738 9736 9735 9734 9733 9732 9731 9729 9727 9725 9722 9720 9719 9718 9718 9718 9718 9717 9716 9715 9714 9713 9712 9711 9710 9709 9708 9706 9705 9703 9703 9703 9703 9702 9702 9702 9702 9701 9701 9701 9701 9701 9701 9701 9700 9700 9700 9700 9701 9701
9818 9815 9811 9808 9806 9803 9800 9797 9794 9791 9789 9786 9783 9780 9777 9774 9772 9769 9767 9765 9762 9759 9757 9754 9751 9749 9747 9746 9743 9741 9738 9736 9735 9733 9730 9728 9727 9726 9725 9724 9723 9722 9720 9719 9717 9714 9713 9711 9711 9710 9709 9709 9708 9707 9707 9706 9705 9705 9704 9703 9702 9701 9700 9698 9697 9696 9695 9695 9695 9695 9695 9694 9694 9694 9694 9693 9693 9694 9694 9693 9693 9693 9693 9694 9694
9807 9804 9801 9798 9794 9791 9788 9785 9783 9780 9778 9775 9772 9769 9766 9764 9761 9759 9757 9754 9751 9748 9746 9743 9741 9739 9737 9736 9734 9731 9729 9727 9725 9723 9721 9720 9718 9717 9716 9715 9714 9713 9712 9710 9709 9707 9705 9704 9703 9702 9701 9700 9700 9699 9699 9698 9697 9697 9696 9695 9695 9694 9693 9692 9691 9689 9688 9688 9688 9688 9688 9688 9687 9687 9687 9687 9687 9687 9687 9687 9687 9687 9687 9687 9687